SKYSAT-C14 (45788 NORAD) Tracking and Keplerian Element Data

This shows tracking and keplerian element data for the satellite.

Feedback or suggestion? Click here.




ElementValue
Catalog45788
NameSKYSAT-C14
Epoch Orbit854
Epoch Day218.76416985
Epoch Year2020
RAAN36.2167
Inclination53.0004
Eccentricity0.0003935
Argument of Perigee27.8319
Mean Anonmoly332.2901
Mean Motion15.56081766
Decay Rate4.399E-05
L11 45788U 20038BL 20218.76416985 .00004399 00000-0 68795-4 0 9998
L22 45788 53.0004 36.2167 0003935 27.8319 332.2901 15.56081766 8543

Live tracking and technical data element details for SKYSAT-C14 (NORAD 45788). SKYSAT-C14 can be tracked NOW for your location showing map with azimuth and elevation plus other details from your city location.

Track the satellite on the map from your city or location and see movement details for azimuth, elevation, latitude, longitude, range, height, and movement on the map or in text.







IsCatalogInMostPopularTable: catalog: 45788, numindb: 12
Update: records affected: 1



GetName: 45788 SKYSAT-C14

Hit Count: updated at: Fri, 07 Aug 2020 23:51:36 GMT